Location: Overspoor
(51.4747°N, 5.6641°E)
Time: 06:00:35
(UTC+02:00)

KKS-1 - Pass Details

Date: 28 June 2022
Orbit: 634 x 649 km, 98.2° (Epoch: 13 August)

Event Time Altitude Azimuth Distance (km) Brightness Sun altitude
Rises 01:20:09 0° 3° (N) 2,982 ? -15.1°
Reaches altitude 10° 01:22:58 10° 345° (NNW) 2,065 ? -15.1°
Maximum altitude 01:25:58 18° 303° (WNW) 1,597 ? -15.2°
Drops below altitude 10° 01:28:57 10° 261° (W) 2,053 ? -15.2°
Sets 01:31:44 0° 242° (WSW) 2,957 ? -15.2°
Enters shadow 01:31:48 - 242° (WSW) 2,982 ? -15.2°
